International Virtual Aviation Organisation

Russian Federation and Kazakhstan MCD

 

Карточка аэропорта URSS

Внимание!
Информация на этой странице в стадии наполнения.
Если вы не увидели какой-то информации, или заметили неточность - пожалуйста сообщите нам!
Спасибо!
Команда RU-STAFF
Название аэропортаСочи
Название аэропорта (англ.)Sochi
Превышение89 ft. (27.1 m.)
Координаты43°26.634', 39°56.55'
Высота перехода1100m
Эшелон переходаFL050
Коды ответчика1060-1077
Зона ОрВДРостов-на-Дону РПИ (URRV)
Данные METARURSS 170900Z 17004MPS 9999 NSC 11/M03 Q1029 R02/010070 R06/010070 NOSIG RMK R06/17005G08MPS QFE770
Проноз погоды (TAF)URSS 170755Z 1709/1809 23004G09MPS 9999 FEW030 TEMPO 1709/1711 18004G09MPS BECMG 1711/1712 28004G09MPS BECMG 1716/1718 05006MPS
NOTAMshow/hide NOTAM
AWOS   TABLE

Информация о ВПП

ВПП Длина ВПП (м.) Покрытие Курс ВПП Частота ILS
062890Цементобетон58111.1
242890Цементобетон238 
022500Цементобетон22110.5
202500Цементобетон202 

Диспетчерские позиции

Позывной Наименование органа УВД Частота
URSS_GNDСочи-Руление119.000
URSS_TWRСочи-Старт121.200
URSS_APPСочи-Подход118.300
URSS_R_APPСочи-Круг119.700
URSS_DELСочи-Деливери132.700
URSS_FM1119.000



Спутниковое изображение